Regional Weather Roundup
Issued by NWS

Home | Current Version | Previous Version | Text Only | Print | Product List | Glossary Off
Versions: 1 2 3 4 5 6 7 8 9 10 11 12 13 14 15 16 17 18 19 20 21 22 23 24 25 26 27 28 29 30 31 32 33 34 35 36 37 38 39 40 41 42 43 44 45 46 47 48 49 50

000
ASUS45 KBOU 251507
RWRCO

WEATHER ROUNDUP FOR COLORADO
NATIONAL WEATHER SERVICE DENVER/BOULDER CO
800 AM MST SUN JAN 25 2015

NOTE: "FAIR" INDICATES FEW OR NO CLOUDS BELOW 12000 FEET WITH NO
SIGNIFICANT WEATHER AND/OR OBSTRUCTIONS TO VISIBILITY.

COZ001>005-013-030-031-251600-
...NORTHWEST COLORADO...

CITY           SKY/WX    TMP DP  RH WIND       PRES   REMARKS
CRAIG          CLOUDY    15  11  83 CALM      30.37S
HAYDEN         CLOUDY    27  18  69 CALM      30.35S
MEEKER         PTCLDY    12   8  84 CALM      30.39S
MOUNT WERNER   NOT AVBL
STEAMBOAT SPGS CLOUDY    29  23  75 SE3       30.35R
WALDEN         PTCLDY    23  21  93 S7        30.29S WCI  15
$$

COZ006>008-011-251600-
...WEST CENTRAL VALLEYS...

CITY           SKY/WX    TMP DP  RH WIND       PRES   REMARKS
GRAND JUNCTION PTCLDY    24  17  74 E3        30.39R
MONTROSE       MOCLDY    18  13  80 SE5       30.41S WCI  11
EAGLE          CLOUDY    19  16  86 CALM      30.41S
RIFLE          CLOUDY    22  17  81 CALM      30.41S
DELTA          MOCLDY    21  16  79 CALM      30.41F
NUCLA          MOCLDY    21  18  86 E5        30.39S WCI  15
$$

COZ017>023-064>068-251600-
...SOUTHWEST COLORADO...

CITY           SKY/WX    TMP DP  RH WIND       PRES   REMARKS
DURANGO        CLEAR     17  14  88 NE3       30.32R
CORTEZ         CLEAR     18  14  84 NE3       30.32R
PAGOSA SPRINGS CLEAR     13  12  95 CALM      30.31R
TELLURIDE      PTCLDY    25  14  63 CALM      30.37R
WOLF CREEK PAS NOT AVBL
$$

COZ009-010-012-014-032>034-037-058>063-251600-
...CENTRAL COLORADO...

CITY           SKY/WX    TMP DP  RH WIND       PRES   REMARKS
ASPEN          CLOUDY    27  19  72 S8        30.36F WCI  19
BUENA VISTA    PTCLDY    34  19  54 NW12      30.28F WCI  26
COPPER MTN     CLOUDY    23  18  80 W20G30    30.36S WCI   8
BERTHOUD PASS  NOT AVBL
COTTONWOOD PAS PTCLDY    32  18  55 NW9G26    30.30S WCI  24
GUNNISON       PTCLDY    -8 -27  37 CALM      30.45S
KREMMLING      CLOUDY    34  25  69 SW13      30.35S WCI  25
LEADVILLE      MOCLDY    20  15  81 N10       30.33S WCI   9
MONARCH PASS   CLOUDY    18  14  86 MISG      30.43S
SALIDA         PTCLDY    37  20  51 NW6       30.35F
SUNLIGHT       CLOUDY    28  27  93 CALM      30.40R
WILKERSON PASS PTCLDY    27  14  59 NW17G44   30.28S WCI  14
$$

COZ069>075-251600-
...SAN LUIS VALLEY/SANGRE DE CRISTO MOUNTAINS...

CITY           SKY/WX    TMP DP  RH WIND       PRES   REMARKS
ALAMOSA        MOCLDY    11   4  73 CALM      30.32R
LA VETA PASS   NOT AVBL
SAGUACHE       PTCLDY    32  19  59 N16       30.32S WCI  21
$$

COZ035-036-038>040-251600-
...NORTHERN COLORADO FRONT RANGE...

CITY           SKY/WX    TMP DP  RH WIND       PRES   REMARKS
DENVER INTL AP MOCLDY    35  26  69 SW9       30.15R WCI  28
DMNS CITY PARK   N/A     35  23  62 S3        30.17R
AURORA         PTCLDY    38  23  53 SW5       30.17R
FRONT RANGE AP NOT AVBL
ERIE MUNI ARPT PTCLDY    26  25  94 CALM      30.15R
BOULDER MUN AP PTCLDY    45  27  49 NW14G21   30.14R
CENTENNIAL     PTCLDY    33  25  72 SW7       30.16R WCI  27
BROOMFIELD     PTCLDY    46  25  42 W26       30.14S
FORT COLLINS   PTCLDY    30  25  80 CALM      30.16S
LONGMONT       PTCLDY    25  20  82 CALM      30.17R
$$

COZ041-046-047-076>085-087-088-251600-
...PIKES PEAK/PALMER DIVIDE AND SOUTHERN FOOTHILLS...

CITY           SKY/WX    TMP DP  RH WIND       PRES   REMARKS
COLO. SPRINGS  PTCLDY    29  23  78 CALM      30.19F
A. F. ACADEMY  CLEAR     25  19  76 CALM      30.16F
ELLICOTT       CLEAR    N/A N/A N/A W10       30.17F
FALCON         CLEAR     31  23  73 W10       30.18S WCI  22
FORT CARSON    CLEAR     28  23  84 SW2       30.18S
LIMON          PTCLDY    30  26  85 W8        30.15R WCI  22
MONUMENT HILL  CLEAR     30  21  69 W7        30.17R WCI  23
TRINIDAD       PTCLDY    31  23  72 SW12      30.23R WCI  22
$$

COZ042>045-048>051-090-091-251600-
...NORTHEAST COLORADO...

CITY           SKY/WX    TMP DP  RH WIND       PRES   REMARKS
GREELEY ARPT   CLOUDY    30  25  80 NE3       30.15R
AKRON          CLEAR     31  27  85 CALM      30.13R
BURLINGTON     CLEAR     36  27  69 NW17      30.12R
WRAY           CLEAR     39  28  65 W10G18    30.11R
STERLING       CLOUDY    37  32  81 N7        30.14R
HOLYOKE        CLEAR     41  30  65 NW15G22   30.10R
FORT MORGAN    CLOUDY    32  28  85 W12       30.16S WCI  23
$$

COZ086-089-092>099-251600-
...SOUTHEAST COLORADO...

CITY           SKY/WX    TMP DP  RH WIND       PRES   REMARKS
PUEBLO         CLEAR     29  25  85 W5        30.20S WCI  24
LA JUNTA       CLEAR     33  26  75 W14       30.19S WCI  23
LAMAR          CLEAR     35  28  75 W13       30.17R WCI  26
SPRINGFIELD      N/A     36  27  69 NW13      30.17R
$$


USA.gov is the U.S. government's official web portal to all federal, state and local government web resources and services.